Time,TemperatureF,DewpointF,PressureIn,WindDirection,WindDirectionDegrees,WindSpeedMPH,WindSpeedGustMPH,Humidity,HourlyPrecipIn,Conditions,Clouds,dailyrainin,SoftwareType,DateUTC
2013-02-23 00:00:00,4.5,1.7,30.09,West,267,0.0,0.0,88,0.00,,,0.00,Wunderground v.1.15,2013-02-23 06:00:00,
2013-02-23 00:10:00,4.3,1.8,30.09,West,267,0.0,0.0,89,0.00,,,0.00,Wunderground v.1.15,2013-02-23 06:10:00,
2013-02-23 00:20:00,3.7,0.7,30.08,West,267,0.0,0.0,87,0.00,,,0.00,Wunderground v.1.15,2013-02-23 06:20:00,
2013-02-23 00:25:00,3.9,1.1,30.08,West,267,0.0,0.0,88,0.00,,,0.00,Wunderground v.1.15,2013-02-23 06:25:00,
2013-02-23 00:35:00,4.0,1.2,30.09,SSW,210,0.0,0.0,88,0.00,,,0.00,Wunderground v.1.15,2013-02-23 06:35:00,
2013-02-23 00:45:00,1.1,-2.1,30.09,SE,134,0.0,0.0,86,0.00,,,0.00,Wunderground v.1.15,2013-02-23 06:45:00,
2013-02-23 00:55:00,0.4,-2.8,30.09,SE,134,0.0,0.0,86,0.00,,,0.00,Wunderground v.1.15,2013-02-23 06:55:00,
2013-02-23 01:00:00,0.2,-2.8,30.09,SE,134,0.0,0.0,87,0.00,,,0.00,Wunderground v.1.15,2013-02-23 07:00:00,
2013-02-23 01:10:00,-0.5,-3.7,30.09,SW,218,0.0,0.0,86,0.00,,,0.00,Wunderground v.1.15,2013-02-23 07:10:00,
2013-02-23 01:20:00,-0.9,-4.1,30.09,SW,218,0.0,0.0,86,0.00,,,0.00,Wunderground v.1.15,2013-02-23 07:20:00,
2013-02-23 01:25:00,-0.1,-2.8,30.09,SSE,152,0.0,0.0,88,0.00,,,0.00,Wunderground v.1.15,2013-02-23 07:25:00,
2013-02-23 01:35:00,1.6,-0.9,30.08,SSE,150,0.0,0.0,89,0.00,,,0.00,Wunderground v.1.15,2013-02-23 07:35:00,
2013-02-23 01:45:00,1.4,-1.3,30.08,South,170,0.0,1.0,88,0.00,,,0.00,Wunderground v.1.15,2013-02-23 07:45:00,
2013-02-23 01:55:00,1.3,-1.7,30.08,SSE,163,1.0,1.0,87,0.00,,,0.00,Wunderground v.1.15,2013-02-23 07:55:00,
2013-02-23 02:00:00,1.2,-1.8,30.08,SSE,163,1.0,1.0,87,0.00,,,0.00,Wunderground v.1.15,2013-02-23 08:00:00,
2013-02-23 02:10:00,1.3,-1.4,30.08,SSE,163,1.0,2.0,88,0.00,,,0.00,Wunderground v.1.15,2013-02-23 08:10:00,
2013-02-23 02:20:00,0.8,-2.2,30.08,SSE,167,1.0,1.0,87,0.00,,,0.00,Wunderground v.1.15,2013-02-23 08:20:00,
2013-02-23 02:30:00,2.0,-0.5,30.08,SSE,168,0.0,0.0,89,0.00,,,0.00,Wunderground v.1.15,2013-02-23 08:30:00,
2013-02-23 02:40:00,3.1,0.8,30.08,SW,229,1.0,2.0,90,0.00,,,0.00,Wunderground v.1.15,2013-02-23 08:40:00,
2013-02-23 02:50:00,4.2,1.9,30.07,WSW,248,1.0,1.0,90,0.00,,,0.00,Wunderground v.1.15,2013-02-23 08:50:00,
2013-02-23 02:55:00,4.0,1.5,30.07,WSW,249,0.0,1.0,89,0.00,,,0.00,Wunderground v.1.15,2013-02-23 08:55:00,
2013-02-23 03:00:00,3.6,0.8,30.07,WSW,249,0.0,0.0,88,0.00,,,0.00,Wunderground v.1.15,2013-02-23 09:00:00,
2013-02-23 03:05:00,3.4,0.6,30.06,WSW,246,0.0,1.0,88,0.00,,,0.00,Wunderground v.1.15,2013-02-23 09:05:00,
2013-02-23 03:15:00,2.8,-0.2,30.06,SW,224,0.0,1.0,87,0.00,,,0.00,Wunderground v.1.15,2013-02-23 09:15:00,
2013-02-23 03:25:00,2.7,0.0,30.06,SW,224,0.0,0.0,88,0.00,,,0.00,Wunderground v.1.15,2013-02-23 09:25:00,
2013-02-23 03:30:00,2.7,0.0,30.06,SW,224,0.0,0.0,88,0.00,,,0.00,Wunderground v.1.15,2013-02-23 09:30:00,
2013-02-23 03:40:00,2.5,-0.2,30.06,SSW,208,0.0,0.0,88,0.00,,,0.00,Wunderground v.1.15,2013-02-23 09:40:00,
2013-02-23 03:50:00,2.8,0.1,30.06,SSW,207,0.0,0.0,88,0.00,,,0.00,Wunderground v.1.15,2013-02-23 09:50:00,
2013-02-23 04:00:00,1.9,-0.8,30.06,SW,221,0.0,0.0,88,0.00,,,0.00,Wunderground v.1.15,2013-02-23 10:00:00,
2013-02-23 04:10:00,2.4,-0.3,30.05,SE,136,0.0,0.0,88,0.00,,,0.00,Wunderground v.1.15,2013-02-23 10:10:00,
2013-02-23 04:15:00,2.9,0.4,30.05,SE,136,0.0,0.0,89,0.00,,,0.00,Wunderground v.1.15,2013-02-23 10:15:00,
2013-02-23 04:25:00,3.4,0.6,30.04,SE,136,0.0,0.0,88,0.00,,,0.00,Wunderground v.1.15,2013-02-23 10:25:00,
2013-02-23 04:35:00,2.3,-0.7,30.04,SE,137,0.0,0.0,87,0.00,,,0.00,Wunderground v.1.15,2013-02-23 10:35:00,
2013-02-23 04:40:00,1.9,-1.1,30.04,SE,136,0.0,0.0,87,0.00,,,0.00,Wunderground v.1.15,2013-02-23 10:40:00,
2013-02-23 04:50:00,1.1,-2.1,30.04,SE,136,0.0,0.0,86,0.00,,,0.00,Wunderground v.1.15,2013-02-23 10:50:00,
2013-02-23 05:00:00,0.1,-3.1,30.04,SE,138,0.0,0.0,86,0.00,,,0.00,Wunderground v.1.15,2013-02-23 11:00:00,
2013-02-23 05:10:00,-0.3,-3.5,30.05,South,174,0.0,0.0,86,0.00,,,0.00,Wunderground v.1.15,2013-02-23 11:10:00,
2013-02-23 05:15:00,-0.3,-3.5,30.05,South,174,0.0,0.0,86,0.00,,,0.00,Wunderground v.1.15,2013-02-23 11:15:00,
2013-02-23 05:25:00,-0.6,-3.8,30.04,South,174,0.0,0.0,86,0.00,,,0.00,Wunderground v.1.15,2013-02-23 11:25:00,
2013-02-23 05:35:00,-0.9,-4.1,30.05,South,174,0.0,0.0,86,0.00,,,0.00,Wunderground v.1.15,2013-02-23 11:35:00,
2013-02-23 05:45:00,-0.4,-3.3,30.04,South,175,0.0,0.0,87,0.00,,,0.00,Wunderground v.1.15,2013-02-23 11:45:00,
2013-02-23 05:55:00,-0.2,-3.1,30.04,South,174,0.0,0.0,87,0.00,,,0.00,Wunderground v.1.15,2013-02-23 11:55:00,
2013-02-23 06:00:00,-0.1,-3.0,30.04,South,175,0.0,0.0,87,0.00,,,0.00,Wunderground v.1.15,2013-02-23 12:00:00,
2013-02-23 06:10:00,0.2,-2.8,30.04,SSE,159,0.0,0.0,87,0.00,,,0.00,Wunderground v.1.15,2013-02-23 12:10:00,
2013-02-23 06:20:00,0.7,-2.3,30.04,SSE,159,0.0,0.0,87,0.00,,,0.00,Wunderground v.1.15,2013-02-23 12:20:00,
2013-02-23 06:30:00,0.6,-2.4,30.04,SSE,158,0.0,0.0,87,0.00,,,0.00,Wunderground v.1.15,2013-02-23 12:30:00,
2013-02-23 06:40:00,0.9,-2.1,30.03,SSW,194,0.0,0.0,87,0.00,,,0.00,Wunderground v.1.15,2013-02-23 12:40:00,
2013-02-23 06:50:00,1.4,-1.3,30.03,SSW,194,0.0,0.0,88,0.00,,,0.00,Wunderground v.1.15,2013-02-23 12:50:00,
2013-02-23 06:55:00,1.4,-1.6,30.03,SSW,194,0.0,0.0,87,0.00,,,0.00,Wunderground v.1.15,2013-02-23 12:55:00,
2013-02-23 07:00:00,1.4,-1.6,30.03,SSW,194,0.0,0.0,87,0.00,,,0.00,Wunderground v.1.15,2013-02-23 13:00:00,
2013-02-23 07:10:00,1.4,-1.6,30.03,SSW,194,0.0,0.0,87,0.00,,,0.00,Wunderground v.1.15,2013-02-23 13:10:00,
2013-02-23 07:15:00,1.2,-1.8,30.03,SSW,194,0.0,0.0,87,0.00,,,0.00,Wunderground v.1.15,2013-02-23 13:15:00,
2013-02-23 07:25:00,1.0,-2.0,30.03,SSW,194,0.0,0.0,87,0.00,,,0.00,Wunderground v.1.15,2013-02-23 13:25:00,
2013-02-23 07:35:00,1.3,-1.7,30.02,SSW,194,0.0,0.0,87,0.00,,,0.00,Wunderground v.1.15,2013-02-23 13:35:00,
2013-02-23 07:40:00,1.4,-1.6,30.02,SSW,194,0.0,0.0,87,0.00,,,0.00,Wunderground v.1.15,2013-02-23 13:40:00,
2013-02-23 07:50:00,1.6,-1.1,30.02,SSW,194,0.0,0.0,88,0.00,,,0.00,Wunderground v.1.15,2013-02-23 13:50:00,
2013-02-23 08:00:00,2.8,0.1,30.02,SSW,194,0.0,0.0,88,0.00,,,0.00,Wunderground v.1.15,2013-02-23 14:00:00,
2013-02-23 08:10:00,5.6,3.1,30.02,SSW,194,0.0,0.0,89,0.00,,,0.00,Wunderground v.1.15,2013-02-23 14:10:00,
2013-02-23 08:15:00,6.7,4.1,30.01,SSW,194,0.0,0.0,89,0.00,,,0.00,Wunderground v.1.15,2013-02-23 14:15:00,
2013-02-23 08:25:00,7.6,5.0,30.02,SSW,194,0.0,0.0,89,0.00,,,0.00,Wunderground v.1.15,2013-02-23 14:25:00,
2013-02-23 08:35:00,7.0,3.9,30.02,SSW,194,0.0,0.0,87,0.00,,,0.00,Wunderground v.1.15,2013-02-23 14:35:00,
2013-02-23 08:45:00,7.7,5.1,30.01,SSW,194,0.0,0.0,89,0.00,,,0.00,Wunderground v.1.15,2013-02-23 14:45:00,
2013-02-23 08:55:00,8.0,5.4,30.02,SSW,194,0.0,0.0,89,0.00,,,0.00,Wunderground v.1.15,2013-02-23 14:55:00,
2013-02-23 09:00:00,8.4,5.8,30.02,SSW,194,0.0,1.0,89,0.00,,,0.00,Wunderground v.1.15,2013-02-23 15:00:00,
2013-02-23 09:10:00,9.4,6.8,30.02,SSE,162,1.0,1.0,89,0.00,,,0.00,Wunderground v.1.15,2013-02-23 15:10:00,
2013-02-23 09:20:00,10.1,7.3,30.02,SSE,160,2.0,2.0,88,0.00,,,0.00,Wunderground v.1.15,2013-02-23 15:20:00,
2013-02-23 09:30:00,9.7,6.9,30.02,South,169,3.0,4.0,88,0.00,,,0.00,Wunderground v.1.15,2013-02-23 15:30:00,
2013-02-23 09:40:00,11.0,8.4,30.02,South,170,4.0,4.0,89,0.00,,,0.00,Wunderground v.1.15,2013-02-23 15:40:00,
2013-02-23 09:50:00,12.1,9.5,30.02,South,183,4.0,5.0,89,0.00,,,0.00,Wunderground v.1.15,2013-02-23 15:50:00,
2013-02-23 09:55:00,12.5,9.6,30.02,South,170,5.0,5.0,88,0.00,,,0.00,Wunderground v.1.15,2013-02-23 15:55:00,
2013-02-23 10:00:00,12.8,9.9,30.02,South,171,5.0,5.0,88,0.00,,,0.00,Wunderground v.1.15,2013-02-23 16:00:00,
2013-02-23 10:10:00,14.0,11.1,30.02,South,172,5.0,5.0,88,0.00,,,0.00,Wunderground v.1.15,2013-02-23 16:10:00,
2013-02-23 10:15:00,14.6,11.7,30.02,South,173,5.0,6.0,88,0.00,,,0.00,Wunderground v.1.15,2013-02-23 16:15:00,
2013-02-23 10:25:00,15.8,12.1,30.01,SSE,167,6.0,6.0,85,0.00,,,0.00,Wunderground v.1.15,2013-02-23 16:25:00,
2013-02-23 10:35:00,16.6,12.3,30.01,South,177,7.0,7.0,83,0.00,,,0.00,Wunderground v.1.15,2013-02-23 16:35:00,
2013-02-23 10:40:00,17.0,12.5,30.01,South,186,8.0,8.0,82,0.00,,,0.00,Wunderground v.1.15,2013-02-23 16:40:00,
2013-02-23 10:45:00,17.5,12.9,30.00,SSW,198,8.0,9.0,82,0.00,,,0.00,Wunderground v.1.15,2013-02-23 16:45:00,
2013-02-23 10:55:00,18.5,13.9,30.01,SW,225,9.0,9.0,82,0.00,,,0.00,Wunderground v.1.15,2013-02-23 16:55:00,
2013-02-23 11:00:00,19.2,14.6,30.00,SSW,205,8.0,8.0,82,0.00,,,0.00,Wunderground v.1.15,2013-02-23 17:00:00,
2013-02-23 11:10:00,20.3,15.4,30.00,SSW,200,8.0,8.0,81,0.00,,,0.00,Wunderground v.1.15,2013-02-23 17:10:00,
2013-02-23 11:15:00,20.9,16.0,30.00,SSW,195,8.0,8.0,81,0.00,,,0.00,Wunderground v.1.15,2013-02-23 17:15:00,
2013-02-23 11:25:00,22.1,16.9,30.00,SSW,203,8.0,8.0,80,0.00,,,0.00,Wunderground v.1.15,2013-02-23 17:25:00,
2013-02-23 11:35:00,23.1,17.8,30.00,South,187,7.0,8.0,80,0.00,,,0.00,Wunderground v.1.15,2013-02-23 17:35:00,
2013-02-23 11:45:00,24.0,18.1,30.00,SSW,199,8.0,8.0,78,0.00,,,0.00,Wunderground v.1.15,2013-02-23 17:45:00,
2013-02-23 11:55:00,24.6,18.7,30.00,SSW,195,9.0,9.0,78,0.00,,,0.00,Wunderground v.1.15,2013-02-23 17:55:00,
2013-02-23 12:00:00,25.2,19.3,30.00,South,177,8.0,8.0,78,0.00,,,0.00,Wunderground v.1.15,2013-02-23 18:00:00,
2013-02-23 12:10:00,26.3,19.8,29.99,South,181,7.0,7.0,76,0.00,,,0.00,Wunderground v.1.15,2013-02-23 18:10:00,
2013-02-23 12:20:00,27.1,20.5,29.99,South,179,7.0,8.0,76,0.00,,,0.00,Wunderground v.1.15,2013-02-23 18:20:00,
2013-02-23 12:30:00,28.0,21.4,29.98,South,181,7.0,9.0,76,0.00,,,0.00,Wunderground v.1.15,2013-02-23 18:30:00,
2013-02-23 12:35:00,28.5,21.9,29.98,SSW,210,8.0,9.0,76,0.00,,,0.00,Wunderground v.1.15,2013-02-23 18:35:00,
2013-02-23 12:45:00,29.0,21.7,29.98,SW,226,10.0,10.0,74,0.00,,,0.00,Wunderground v.1.15,2013-02-23 18:45:00,
2013-02-23 12:55:00,29.6,22.3,29.97,SSW,195,9.0,10.0,74,0.00,,,0.00,Wunderground v.1.15,2013-02-23 18:55:00,
2013-02-23 13:00:00,30.0,22.7,29.97,SW,215,9.0,9.0,74,0.00,,,0.00,Wunderground v.1.15,2013-02-23 19:00:00,
2013-02-23 13:10:00,30.7,23.1,29.97,SW,221,9.0,11.0,73,0.00,,,0.00,Wunderground v.1.15,2013-02-23 19:10:00,
2013-02-23 13:20:00,31.1,23.1,29.97,SW,235,9.0,9.0,72,0.00,,,0.00,Wunderground v.1.15,2013-02-23 19:20:00,
2013-02-23 13:30:00,31.6,23.3,29.97,WSW,238,7.0,7.0,71,0.00,,,0.00,Wunderground v.1.15,2013-02-23 19:30:00,
2013-02-23 13:40:00,32.2,23.8,29.97,SW,228,6.0,7.0,71,0.00,,,0.00,Wunderground v.1.15,2013-02-23 19:40:00,
2013-02-23 13:50:00,32.5,23.5,29.96,SW,232,7.0,8.0,69,0.00,,,0.00,Wunderground v.1.15,2013-02-23 19:50:00,
2013-02-23 14:00:00,32.9,24.2,29.95,SW,225,8.0,8.0,70,0.00,,,0.00,Wunderground v.1.15,2013-02-23 20:00:00,
2013-02-23 14:10:00,33.2,24.5,29.96,SW,235,7.0,7.0,70,0.00,,,0.00,Wunderground v.1.15,2013-02-23 20:10:00,
2013-02-23 14:15:00,33.5,24.4,29.95,SSW,210,7.0,7.0,69,0.00,,,0.00,Wunderground v.1.15,2013-02-23 20:15:00,
2013-02-23 14:25:00,34.1,25.0,29.95,SW,221,6.0,7.0,69,0.00,,,0.00,Wunderground v.1.15,2013-02-23 20:25:00,
2013-02-23 14:30:00,34.3,25.2,29.94,SW,214,5.0,5.0,69,0.00,,,0.00,Wunderground v.1.15,2013-02-23 20:30:00,
2013-02-23 14:40:00,34.8,25.3,29.95,SW,231,6.0,6.0,68,0.00,,,0.00,Wunderground v.1.15,2013-02-23 20:40:00,
2013-02-23 14:50:00,34.8,25.0,29.95,SW,230,8.0,11.0,67,0.00,,,0.00,Wunderground v.1.15,2013-02-23 20:50:00,
2013-02-23 15:00:00,35.0,25.5,29.94,SSW,212,7.0,7.0,68,0.00,,,0.00,Wunderground v.1.15,2013-02-23 21:00:00,
2013-02-23 15:10:00,35.1,25.2,29.94,SW,222,7.0,8.0,67,0.00,,,0.00,Wunderground v.1.15,2013-02-23 21:10:00,
2013-02-23 15:15:00,35.2,25.7,29.94,SSW,194,7.0,8.0,68,0.00,,,0.00,Wunderground v.1.15,2013-02-23 21:15:00,
2013-02-23 15:25:00,35.2,25.3,29.93,SSW,205,7.0,9.0,67,0.00,,,0.00,Wunderground v.1.15,2013-02-23 21:25:00,
2013-02-23 15:35:00,35.1,25.2,29.93,SW,214,7.0,8.0,67,0.00,,,0.00,Wunderground v.1.15,2013-02-23 21:35:00,
2013-02-23 15:45:00,35.3,25.4,29.93,SSW,204,8.0,8.0,67,0.00,,,0.00,Wunderground v.1.15,2013-02-23 21:45:00,
2013-02-23 15:55:00,35.3,25.8,29.93,SSW,193,8.0,8.0,68,0.00,,,0.00,Wunderground v.1.15,2013-02-23 21:55:00,
2013-02-23 16:00:00,35.6,26.1,29.93,South,184,6.0,6.0,68,0.00,,,0.00,Wunderground v.1.15,2013-02-23 22:00:00,
2013-02-23 16:10:00,35.7,26.5,29.92,South,184,5.0,5.0,69,0.00,,,0.00,Wunderground v.1.15,2013-02-23 22:10:00,
2013-02-23 16:20:00,35.9,26.7,29.92,South,190,6.0,6.0,69,0.00,,,0.00,Wunderground v.1.15,2013-02-23 22:20:00,
2013-02-23 16:25:00,35.7,26.5,29.92,SSW,194,6.0,6.0,69,0.00,,,0.00,Wunderground v.1.15,2013-02-23 22:25:00,
2013-02-23 16:35:00,35.5,27.0,29.92,SSW,197,6.0,8.0,71,0.00,,,0.00,Wunderground v.1.15,2013-02-23 22:35:00,
2013-02-23 16:45:00,35.4,26.9,29.92,South,190,6.0,6.0,71,0.00,,,0.00,Wunderground v.1.15,2013-02-23 22:45:00,
2013-02-23 16:55:00,35.6,26.8,29.91,South,186,4.0,5.0,70,0.00,,,0.00,Wunderground v.1.15,2013-02-23 22:55:00,
2013-02-23 17:00:00,35.5,26.7,29.91,South,191,4.0,4.0,70,0.00,,,0.00,Wunderground v.1.15,2013-02-23 23:00:00,
2013-02-23 17:10:00,34.5,26.1,29.91,SSE,158,4.0,4.0,71,0.00,,,0.00,Wunderground v.1.15,2013-02-23 23:10:00,
2013-02-23 17:20:00,34.0,26.6,29.91,SSE,160,4.0,5.0,74,0.00,,,0.00,Wunderground v.1.15,2013-02-23 23:20:00,
2013-02-23 17:30:00,33.2,25.8,29.91,South,173,3.0,3.0,74,0.00,,,0.00,Wunderground v.1.15,2013-02-23 23:30:00,
2013-02-23 17:40:00,32.5,25.1,29.91,South,171,3.0,3.0,74,0.00,,,0.00,Wunderground v.1.15,2013-02-23 23:40:00,
2013-02-23 17:50:00,31.5,25.1,29.91,SE,129,2.0,2.0,77,0.00,,,0.00,Wunderground v.1.15,2013-02-23 23:50:00,
2013-02-23 17:55:00,31.3,25.2,29.91,SE,133,2.0,2.0,78,0.00,,,0.00,Wunderground v.1.15,2013-02-23 23:55:00,
2013-02-23 18:00:00,30.8,25.1,29.91,SE,141,2.0,3.0,79,0.00,,,0.00,Wunderground v.1.15,2013-02-24 00:00:00,
2013-02-23 18:10:00,29.2,23.2,29.91,SSW,201,2.0,2.0,78,0.00,,,0.00,Wunderground v.1.15,2013-02-24 00:10:00,
2013-02-23 18:20:00,27.5,22.7,29.92,SSW,199,4.0,4.0,82,0.00,,,0.00,Wunderground v.1.15,2013-02-24 00:20:00,
2013-02-23 18:30:00,26.9,22.7,29.92,South,188,4.0,4.0,84,0.00,,,0.00,Wunderground v.1.15,2013-02-24 00:30:00,
2013-02-23 18:40:00,26.5,22.6,29.92,South,177,4.0,4.0,85,0.00,,,0.00,Wunderground v.1.15,2013-02-24 00:40:00,
2013-02-23 18:50:00,25.9,22.0,29.92,South,190,3.0,5.0,85,0.00,,,0.00,Wunderground v.1.15,2013-02-24 00:50:00,
2013-02-23 19:00:00,25.6,22.0,29.93,South,174,4.0,4.0,86,0.00,,,0.00,Wunderground v.1.15,2013-02-24 01:00:00,
2013-02-23 19:10:00,25.3,21.7,29.93,SSE,160,3.0,3.0,86,0.00,,,0.00,Wunderground v.1.15,2013-02-24 01:10:00,
2013-02-23 19:15:00,25.5,22.2,29.93,SE,145,2.0,3.0,87,0.00,,,0.00,Wunderground v.1.15,2013-02-24 01:15:00,
2013-02-23 19:25:00,25.3,21.7,29.93,SSE,153,1.0,2.0,86,0.00,,,0.00,Wunderground v.1.15,2013-02-24 01:25:00,
2013-02-23 19:35:00,24.4,20.8,29.93,SSE,163,2.0,2.0,86,0.00,,,0.00,Wunderground v.1.15,2013-02-24 01:35:00,
2013-02-23 19:40:00,23.8,20.2,29.94,SSE,168,2.0,2.0,86,0.00,,,0.00,Wunderground v.1.15,2013-02-24 01:40:00,
2013-02-23 19:50:00,22.7,19.1,29.94,SE,139,2.0,3.0,86,0.00,,,0.00,Wunderground v.1.15,2013-02-24 01:50:00,
2013-02-23 20:00:00,23.2,20.2,29.94,SE,145,2.0,2.0,88,0.00,,,0.00,Wunderground v.1.15,2013-02-24 02:00:00,
2013-02-23 20:10:00,23.2,20.2,29.93,SE,124,1.0,1.0,88,0.00,,,0.00,Wunderground v.1.15,2013-02-24 02:10:00,
2013-02-23 20:15:00,23.0,20.0,29.93,SE,145,1.0,3.0,88,0.00,,,0.00,Wunderground v.1.15,2013-02-24 02:15:00,
2013-02-23 20:25:00,22.8,19.8,29.94,South,187,2.0,2.0,88,0.00,,,0.00,Wunderground v.1.15,2013-02-24 02:25:00,
2013-02-23 20:35:00,23.1,20.6,29.94,South,176,4.0,5.0,90,0.00,,,0.00,Wunderground v.1.15,2013-02-24 02:35:00,
2013-02-23 20:45:00,23.9,21.1,29.94,South,173,5.0,6.0,89,0.00,,,0.00,Wunderground v.1.15,2013-02-24 02:45:00,
2013-02-23 20:55:00,23.4,20.4,29.94,South,180,4.0,4.0,88,0.00,,,0.00,Wunderground v.1.15,2013-02-24 02:55:00,
2013-02-23 21:00:00,23.0,20.0,29.95,South,186,4.0,4.0,88,0.00,,,0.00,Wunderground v.1.15,2013-02-24 03:00:00,
2013-02-23 21:10:00,22.5,19.5,29.94,SSE,160,2.0,3.0,88,0.00,,,0.00,Wunderground v.1.15,2013-02-24 03:10:00,
2013-02-23 21:15:00,22.7,19.9,29.94,SSE,167,3.0,4.0,89,0.00,,,0.00,Wunderground v.1.15,2013-02-24 03:15:00,
2013-02-23 21:25:00,22.5,20.0,29.95,SSW,203,4.0,4.0,90,0.00,,,0.00,Wunderground v.1.15,2013-02-24 03:25:00,
2013-02-23 21:35:00,23.5,21.3,29.95,SSW,198,5.0,5.0,91,0.00,,,0.00,Wunderground v.1.15,2013-02-24 03:35:00,
2013-02-23 21:45:00,24.1,21.6,29.95,South,183,5.0,6.0,90,0.00,,,0.00,Wunderground v.1.15,2013-02-24 03:45:00,
2013-02-23 21:55:00,23.3,20.3,29.95,South,176,6.0,6.0,88,0.00,,,0.00,Wunderground v.1.15,2013-02-24 03:55:00,
2013-02-23 22:00:00,22.6,19.3,29.95,SSE,166,5.0,5.0,87,0.00,,,0.00,Wunderground v.1.15,2013-02-24 04:00:00,
2013-02-23 22:10:00,22.1,19.4,29.96,South,187,5.0,5.0,89,0.00,,,0.00,Wunderground v.1.15,2013-02-24 04:10:00,
2013-02-23 22:15:00,22.1,19.6,29.96,SSW,201,4.0,5.0,90,0.00,,,0.00,Wunderground v.1.15,2013-02-24 04:15:00,
2013-02-23 22:25:00,21.8,19.1,29.96,SSW,201,3.0,4.0,89,0.00,,,0.00,Wunderground v.1.15,2013-02-24 04:25:00,
2013-02-23 22:35:00,22.0,19.8,29.96,SSW,208,2.0,2.0,91,0.00,,,0.00,Wunderground v.1.15,2013-02-24 04:35:00,
2013-02-23 22:45:00,22.5,20.5,29.96,SSW,203,2.0,2.0,92,0.00,,,0.00,Wunderground v.1.15,2013-02-24 04:45:00,
2013-02-23 22:55:00,22.4,20.2,29.96,South,169,1.0,2.0,91,0.00,,,0.00,Wunderground v.1.15,2013-02-24 04:55:00,
2013-02-23 23:00:00,22.1,19.6,29.96,South,169,0.0,0.0,90,0.00,,,0.00,Wunderground v.1.15,2013-02-24 05:00:00,
2013-02-23 23:10:00,21.5,19.0,29.96,ESE,117,0.0,1.0,90,0.00,,,0.00,Wunderground v.1.15,2013-02-24 05:10:00,
2013-02-23 23:15:00,20.9,18.4,29.96,ESE,117,1.0,1.0,90,0.00,,,0.00,Wunderground v.1.15,2013-02-24 05:15:00,
2013-02-23 23:25:00,20.5,18.3,29.97,SSE,159,0.0,0.0,91,0.00,,,0.00,Wunderground v.1.15,2013-02-24 05:25:00,
2013-02-23 23:35:00,20.6,18.6,29.96,SSE,163,0.0,0.0,92,0.00,,,0.00,Wunderground v.1.15,2013-02-24 05:35:00,
2013-02-23 23:45:00,20.9,18.9,29.97,SE,136,0.0,1.0,92,0.00,,,0.00,Wunderground v.1.15,2013-02-24 05:45:00,
2013-02-23 23:55:00,21.1,19.1,29.96,SE,145,1.0,1.0,92,0.00,,,0.00,Wunderground v.1.15,2013-02-24 05:55:00,